Weather Roundup
Issued by NWS Springfield, MO

Home | Current Version | Previous Version | Text Only | Print | Product List | Glossary On
Versions: 1 2 3 4 5 6 7 8 9 10 11 12 13 14 15 16 17 18 19 20 21 22 23 24 25 26 27 28 29 30 31 32 33 34 35 36 37 38 39 40 41 42 43 44 45 46 47 48 49 50
000
NZUS99 KSGF 260007
HRRSGF

HOURLY WEATHER
NATIONAL WEATHER SERVICE SPRINGFIELD MO
600 PM CST TUE NOV 25 2014

......SGF CWA......

CITY           SKY/WX    TMP DP  RH WIND       PRES   REMARKS
SPRINGFIELD    CLEAR     33  19  56 CALM      30.12S
6HR MIN TEMP:  33; 6HR MAX TEMP:  45;

JOPLIN         CLEAR     38  19  46 SW5       30.14S WCI  34
6HR MIN TEMP:  38; 6HR MAX TEMP:  45;

WEST PLAINS    CLEAR     32  19  58 CALM      30.15R
6HR MIN TEMP:  32; 6HR MAX TEMP:  45;

ROLLA          CLEAR     28  20  71 CALM      30.12S
6HR MIN TEMP:  27; 6HR MAX TEMP:  40;

OSAGE BEACH    CLEAR     34  16  47 CALM      30.13S
BRANSON        PTCLDY    32  23  69 CALM      30.15

......SURROUNDING SGF CWA......

CITY           SKY/WX    TMP DP  RH WIND       PRES   REMARKS
CHANUTE        PTCLDY    37  23  56 SE7       30.09F WCI  32
PARSONS        CLEAR     40  22  48 SE5       30.11F
COFFEYVILLE    CLEAR     40  23  50 S8        30.11F WCI  34
EMPORIA        MOCLDY    39  23  52 S9        30.04F WCI  33
GROVE OK       CLEAR     41  23  48 CALM      30.16S
ROGERS AR      CLEAR     41  21  44 W3        30.14S
SILOAM SPRINGS CLEAR     39  18  41 W6        30.16S WCI  35
HARRISON AR    CLEAR     39  19  44 CALM      30.15R
NEAR YELLVILLE CLEAR     37  19  48 CALM      30.16S

......KANSAS AND MISSOURI......

CITY           SKY/WX    TMP DP  RH WIND       PRES   REMARKS
KANSAS CTY INT MOCLDY    31  19  61 S9        30.07F WCI  23
DOWNTOWN KC    PTCLDY    38  18  44 S7        30.08F WCI  33
COLUMBIA       CLEAR     35  14  42 W3        30.14R
SEDALIA        CLEAR     35  17  47 S5        30.13F WCI  31
ST JOSEPH      MOCLDY    35  19  52 S9        30.06F WCI  28
ST LOUIS       PTCLDY    38  21  50 CALM      30.17R
SPIRIT OF STL  CLEAR     31  23  72 CALM      30.16R
KIRKSVILLE     CLEAR     29  17  61 S6        30.11F WCI  23
WICHITA        CLOUDY    43  27  53 S8        30.03F
TOPEKA         MOCLDY    40  24  53 SE6       30.05F
OLATHE         FAIR      34  19  54 S7        30.07F WCI  28

......TENNESSEE......

CITY           SKY/WX    TMP DP  RH WIND       PRES   REMARKS
MEMPHIS        MOCLDY    42  26  53 NW3       30.19R
NASHVILLE      CLOUDY    44  26  49 N5        30.15R

......ARKANSAS.......

CITY           SKY/WX    TMP DP  RH WIND       PRES   REMARKS
FAYETTEVILLE   CLEAR     34  26  72 CALM      30.15S
FT SMITH       CLEAR     44  24  45 W5        30.17R
LITTLE ROCK    CLEAR     48  19  31 CALM      30.19R

......OKLAHOMA.......

CITY           SKY/WX    TMP DP  RH WIND       PRES   REMARKS
TULSA          MOCLDY    45  21  38 S6        30.12F
PONCA CITY     CLOUDY    47  26  44 S5        30.07F
MCALESTER      CLEAR     40  26  57 CALM      30.15S
OKLAHOMA CITY  MOCLDY    43  26  51 S5        30.09F

......IOWA............

CITY           SKY/WX    TMP DP  RH WIND       PRES   REMARKS
DES MOINES     MOCLDY    33   8  35 SE8       30.05F WCI  26
QUAD CITIES    PTCLDY    21  16  81 SW3       30.15R

......ILLINOIS........

CITY           SKY/WX    TMP DP  RH WIND       PRES   REMARKS
QUINCY         CLEAR     31  19  61 CALM      30.14R
CHICAGO        PTCLDY    21  15  78 SW8       30.16R WCI  11



USA.gov is the U.S. government's official web portal to all federal, state and local government web resources and services.